SCP
0 0 0 0 0 0 0 0 0 0 0 0 0 0 0 0 0 0 0 0 0 0 0 0 0 0 0 0 0 0 0 0 0 0 0 0 0 0 0 0 0 0 0
0 0 0 0 0 0 0 0 0 0 0 0 0 0 0 0 0 0 0 0 0 0 0 0 0 0 0 0 -0 0 0 0 0 0 0 0 0 0 0 0 0 0 0
0 0 0 0 0 0 0 0 0 0 0 0 0 0 0 0 0 0 0 0 0 0 0 0 0 0 0 -0 -0 0 0 0 0 0 0 0 0 0 0 0 0 0 0
0 0 0 0 0 0 0 0 0 0 0 0 0 0 0 0 0 0 0 0 0 0 0 0 0 0 0 0 0 0 0 0 -0 0 0 0 0 0 0 0 0 0 0
0 0 0 0 0 0 0 0 0 0 0 0 0 0 0 0 0 0 0 0 0 0 0 0 0 0 0 0 0 -0 0 0 0 0 0 0 0 0 0 0 0 0 0
0 0 0 0 0 0 0 0 0 0 0 0 0 0 0 0 0 0 0 0 0 0 0 0 0 0 0 0 -0 -0 0 0 0 0 0 0 0 0 0 0 0 0 0
0 0 0 0 0 0 0 0 0 0 0 0 0 0 0 0 0 0 0 0 0 0 0 0 0 0 0 0 0 0 -0 0 0 0 0 0 0 0 0 0 0 0 0
0 0 0 0 0 0 0 0 0 0 0 0 0 0 0 0 0 0 0 0 0 0 0 0 0 0 0 0 0 0 0 0 0 0 0 0 0 0 0 0 0 0 0
0 0 0 0 0 0 0 0 0 0 0 0 0 0 0 0 0 0 0 0 0 0 0 0 0 0 0 0 0 0 0 0 0 0 0 0 0 0 0 0 0 0 0
0 0 0 0 0 0 0 0 0 0 0 0 -0 -0 0 0 0 0 0 0 0 0 0 0 0 0 0 -0 -0 0 0 0 0 0 -0 0 0 0 0 0 0 0 0
0 0 0 0 0 0 0 0 0 0 0 0 0 0 0 0 0 0 0 0 0 0 0 -0 -0 0 0 -0 0 -0 0 -0 -0 -0 -0 0 0 0 0 0 0 0 0
0 0 0 0 0 0 0 0 0 0 0 -0 -0 -0 0 -0 0 0 0 -0 -0 0 0 -0 -0 0 -0 -0 -0 -0 -0 0 0 0 0 0 0 0 0 0 -0 0 0
0 0 0 0 0 0 0 0 0 0 0 0 -0 0 0 -0 -0 -0 -0 0 0 -0 -0 -0 -0 -0 0 -0 -0 0 0 -0 -0 -0 -0 -0 -0 -0 0 0 0 0 0
0 0 0 0 0 0 -0 0 0 -0 -0 -0 0 -0 0 0 0 -0 0 0 0 0 0 0 -0 -0 -0 -0 -0 -0 -0 -0 -0 -0 -0 -0 -0 0 0 0 0 0 0
0 0 0 0 0 0 -0 -0 -0 -0 -0 -0 -0 -0 -0 -0 -0 -0 -0 -0 -0 -0 -0 -0 0 0 0 -0 -0 -0 -0 -0 -0 -0 -0 -0 -0 -0 0 0 0 0 0
0 0 0 0 0 0 0 -0 -0 0 -0 -0 -0 -0 -0 -0 -0 -0 -0 -0 -0 -0 -0 -0 -0 -0 -0 0 0 0 0 0 -0 -0 -0 -0 0 0 0 0 0 0 0
0 0 0 0 0 0 0 -0 -0 0 -0 0 0 -0 -0 -0 -0 -0 -0 -0 -0 -0 -0 -0 -0 -0 -0 0 0 0 0 0 0 0 0 0 0 0 0 0 0 0 0
0 0 0 0 0 0 0 0 0 0 0 0 -0 -0 -0 -0 0 -0 -0 -0 -0 -0 -0 -0 -0 -0 -0 0 0 -0 0 0 0 -0 0 0 0 0 0 0 0 0 0
0 0 0 0 0 0 0 0 0 0 0 0 0 0 -0 -0 -0 -0 0 0 0 0 0 0 0 -0 -0 -0 -0 -0 0 0 0 0 0 0 0 0 0 0 0 0 0
0 0 0 0 0 0 0 0 0 0 0 0 0 0 0 0 0 -0 -0 -0 -0 -0 -0 -0 0 0 0 -0 -0 0 0 0 0 0 0 0 0 0 0 0 0 0 0
0 0 0 0 0 0 0 0 0 0 0 0 0 0 0 0 0 0 0 0 0 0 0 0 0 0 0 0 0 0 0 0 0 0 0 0 0 0 0 0 0 0 0
0 0 0 0 0 0 0 0 0 0 0 0 0 0 0 0 0 0 0 0 0 0 0 0 0 0 0 0 0 0 0 0 0 0 0 0 0 0 0 0 0 0 0
0 0 0 0 0 0 0 0 0 0 0 0 0 0 0 0 0 0 0 0 0 0 0 0 0 0 0 0 0 0 0 0 0 0 0 0 0 0 0 0 0 0 0
0 0 0 0 0 0 0 0 0 0 0 0 0 0 0 0 0 0 0 0 0 0 0 0 0 0 0 0 0 0 0 0 0 0 0 0 0 0 0 0 0 0 0
0 0 0 0 0 0 0 0 0 0 0 0 0 0 0 0 0 0 0 0 0 0 0 0 0 0 0 0 0 0 0 0 0 0 0 0 0 0 0 0 0 0 0
0 0 0 0 0 0 0 0 0 0 0 0 0 0 0 0 0 0 0 0 0 0 0 0 0 0 0 0 0 0 0 0 0 0 0 0 0 0 0 0 0 0 0
Wind_Speed_500mb
27 26 27 32 36 42 51 56 66 67 51 38 46 46 48 47 39 30 24 22 19 37 52 48 34 59 63 47 68 49 59 52 40 47 44 37 32 31 36 30 23 20 16
29 24 25 30 34 43 50 57 63 66 46 39 42 48 48 44 36 29 13 14 14 35 50 36 55 70 65 53 29 38 61 60 48 55 53 35 40 35 26 17 16 17 8
28 21 22 27 32 41 51 57 64 60 38 37 40 43 45 46 41 29 13 6 10 40 50 50 58 68 53 19 51 63 66 71 60 53 49 28 17 45 29 28 24 20 29
25 17 19 22 30 40 46 53 58 49 29 37 40 44 44 43 28 22 15 5 20 43 39 58 42 72 56 56 61 64 63 70 70 66 49 39 43 37 26 33 36 35 32
20 14 16 18 27 36 45 50 51 39 30 34 40 38 34 28 21 18 20 25 34 31 30 46 63 68 44 46 53 65 67 69 76 74 47 35 36 48 62 47 42 38 31
22 14 11 13 20 30 38 49 45 36 35 37 41 35 25 23 25 23 31 29 35 19 31 33 32 47 44 39 47 57 62 59 65 64 52 49 43 53 65 64 51 44 35
24 14 8 9 16 27 34 45 48 31 33 37 41 37 25 26 30 29 28 23 23 26 29 24 25 27 27 32 35 53 55 49 57 64 61 40 39 48 56 67 56 45 37
24 15 8 6 11 19 23 31 46 40 31 31 35 29 23 21 36 34 33 37 31 23 24 25 25 26 21 22 32 52 53 54 61 62 56 36 28 31 44 47 46 45 18
27 17 10 5 5 13 17 26 34 36 35 34 30 29 24 21 33 40 27 31 33 24 23 25 22 19 12 11 24 27 44 57 48 31 21 23 22 27 40 39 36 34 29
31 24 14 8 5 8 15 20 25 33 39 33 23 23 24 22 23 41 39 36 39 32 28 32 28 31 25 31 48 58 55 46 46 51 48 41 41 36 34 35 32 26 13
36 28 20 12 10 5 15 13 17 21 33 37 33 26 20 21 18 30 38 33 32 37 34 35 62 69 64 53 57 61 54 51 64 54 45 43 38 36 33 32 28 20 21
35 31 24 17 15 11 13 15 15 15 23 35 37 39 34 34 32 28 30 35 44 51 59 60 57 60 62 62 65 72 57 54 53 46 40 40 35 32 28 25 22 18 14
41 39 36 27 22 19 16 18 18 20 22 24 25 31 40 48 53 53 54 54 55 60 63 63 63 63 64 58 56 56 52 50 45 40 36 36 30 30 28 23 18 16 14
49 48 44 37 31 27 24 22 24 22 24 26 29 35 39 45 50 58 58 57 58 54 51 52 53 54 51 47 47 45 45 44 43 38 36 35 28 26 23 20 17 16 14
57 60 55 49 41 38 36 33 33 28 28 29 26 33 38 42 44 46 48 48 47 50 49 50 50 48 44 40 39 39 40 41 41 39 36 32 28 26 22 19 18 15 12
63 66 62 57 53 48 46 45 36 39 38 31 25 26 30 34 36 38 41 43 44 46 46 45 46 47 45 43 42 40 41 40 38 38 35 32 28 26 23 20 17 15 11
67 72 72 70 63 57 54 57 51 46 42 33 32 33 33 30 32 34 36 38 41 43 43 43 43 44 45 44 41 39 38 37 35 33 30 28 26 22 19 16 13 11 7
62 68 75 76 70 64 61 61 60 54 49 45 44 43 41 39 36 35 35 37 39 37 38 41 42 42 45 44 40 37 35 35 34 31 28 24 21 18 14 11 8 6 4
68 61 61 74 76 74 71 69 69 64 58 56 55 52 48 47 44 42 38 36 37 39 39 39 40 40 41 41 39 36 34 31 30 29 25 21 16 11 7 4 3 5 8
36 50 58 67 85 83 80 78 78 76 72 64 61 57 54 53 51 49 48 43 40 39 40 41 42 41 38 39 40 39 36 33 30 26 22 16 12 8 6 6 7 10 12
25 25 41 59 69 87 89 89 86 88 79 70 68 65 61 57 55 55 54 52 50 47 44 41 41 42 42 42 41 40 40 35 29 24 21 19 17 15 15 15 15 14 15
25 27 35 48 60 76 93 96 97 83 82 80 76 74 69 65 63 61 59 59 57 56 54 50 48 47 46 46 45 44 41 37 33 28 26 25 24 24 23 21 21 20 18
32 30 33 44 54 62 88 101 96 88 83 85 85 82 77 73 71 70 70 68 66 64 62 61 58 55 52 51 50 46 42 40 37 35 33 34 33 32 30 28 28 27 25
34 28 31 41 54 60 73 93 97 93 88 88 89 89 88 84 81 78 76 76 76 73 71 68 65 60 59 56 53 49 49 48 46 44 45 44 43 41 41 39 36 32 31
33 31 32 37 46 56 64 78 94 99 94 91 91 95 94 93 90 88 86 85 81 78 75 72 68 65 65 60 53 53 54 51 48 50 53 55 55 52 49 45 43 39 37
28 30 35 37 39 46 58 68 84 95 98 96 95 98 100 99 97 94 92 90 86 81 77 74 69 63 61 57 55 54 55 55 56 59 62 63 62 59 55 52 49 48 45
Wind_Direction_500mb
237 254 286 308 324 332 336 343 345 347 350 349 340 342 340 341 338 318 288 261 239 214 197 190 192 204 199 203 204 190 174 161 176 161 159 162 168 170 186 185 194 199 198
227 249 287 308 330 340 341 348 346 348 349 344 345 340 343 342 337 337 300 236 219 191 180 164 186 185 173 143 135 200 167 171 173 171 163 141 138 145 163 171 199 199 187
223 245 284 313 337 344 349 353 348 351 351 348 342 348 355 356 8 9 15 238 186 175 163 168 172 169 173 155 184 203 185 173 176 184 171 146 141 116 129 143 148 160 163
215 244 289 320 342 352 356 358 354 356 357 353 351 358 359 6 6 26 43 74 155 155 165 163 173 179 189 184 189 201 183 178 177 184 186 189 186 148 122 130 140 151 148
214 245 291 330 348 358 6 0 2 5 6 1 358 5 10 32 27 50 60 106 137 157 142 175 177 188 193 197 195 198 184 185 183 185 182 188 182 194 161 143 141 146 142
211 236 282 333 352 9 18 4 17 11 15 14 10 12 9 52 58 70 106 119 149 137 156 159 183 197 200 193 201 202 192 192 191 189 190 200 188 185 171 158 154 150 139
209 228 271 325 358 19 31 20 28 19 14 4 21 33 38 72 77 88 106 118 139 142 148 146 168 180 189 198 209 213 191 190 190 197 198 194 199 189 184 169 160 154 147
207 221 255 318 2 27 41 29 19 24 24 19 25 45 54 86 95 94 105 99 101 117 143 148 153 174 192 206 223 191 184 189 199 183 173 168 161 175 189 180 170 155 157
205 214 237 274 340 26 43 44 24 12 28 31 36 54 71 76 107 108 103 110 109 96 139 137 157 164 201 174 187 189 145 137 129 125 126 150 186 214 202 194 188 198 171
200 207 222 234 257 40 47 63 39 24 34 34 33 46 80 88 103 121 124 135 134 142 135 148 153 150 154 157 150 133 128 123 124 124 128 137 143 149 160 175 181 195 218
204 203 205 214 228 112 71 68 59 47 55 54 53 66 86 98 105 120 122 124 134 135 133 134 125 123 125 129 130 129 128 134 132 136 138 139 148 158 163 173 190 209 218
211 208 203 205 222 174 113 94 86 78 81 75 67 68 83 92 101 102 110 121 127 128 124 128 127 124 126 125 126 125 128 130 137 137 144 144 149 154 155 170 179 181 180
209 211 207 203 214 194 154 128 123 110 97 100 93 89 90 96 98 100 105 109 115 118 121 123 123 123 128 124 124 129 133 135 135 136 140 140 145 142 142 145 146 144 144
210 213 213 204 207 203 174 144 149 134 117 112 115 114 112 109 112 111 114 116 118 118 119 119 120 123 128 127 128 134 136 134 133 136 133 128 130 125 120 119 120 119 125
214 215 213 207 203 205 191 166 163 155 144 136 132 128 125 125 123 121 120 119 123 125 127 127 127 126 127 128 131 133 132 132 133 130 128 126 122 117 118 116 116 115 118
224 222 217 211 206 205 204 184 174 171 165 159 158 152 144 139 137 133 132 133 133 132 133 134 133 133 134 132 134 135 135 134 133 134 133 130 130 126 122 117 113 104 98
239 228 222 216 209 206 206 199 188 183 181 184 179 173 165 158 151 147 146 146 143 143 143 142 142 143 143 141 144 144 144 141 139 137 133 129 123 122 116 110 98 84 70
253 243 232 222 215 210 207 208 200 199 199 197 190 183 178 171 170 166 165 162 157 154 155 155 155 156 152 150 152 153 153 150 147 142 136 131 126 119 113 101 86 74 46
258 256 249 230 220 212 209 209 208 205 203 198 195 192 187 182 180 178 178 177 173 169 170 168 166 167 164 160 161 163 164 161 158 153 147 141 139 124 111 107 23 348 330
263 252 250 238 225 216 211 210 211 210 208 204 198 197 195 192 189 189 185 186 186 186 184 180 177 176 178 177 176 174 176 179 175 168 166 165 169 185 210 229 266 287 302
301 264 241 244 235 221 215 212 213 215 212 208 205 203 202 201 199 197 195 193 193 194 197 196 193 190 190 191 191 190 189 190 192 190 194 201 212 223 236 246 256 270 290
302 276 250 240 235 225 219 217 217 217 215 211 210 209 208 206 206 205 203 201 201 201 202 203 204 205 204 203 204 205 202 200 203 212 218 221 228 235 242 249 261 271 281
305 292 260 242 233 230 222 221 222 220 217 215 213 212 212 213 212 211 209 209 209 209 209 209 210 211 214 215 215 215 216 218 218 222 229 235 238 241 246 251 256 265 280
310 295 268 246 235 230 227 226 224 223 220 218 217 216 215 215 216 216 217 218 217 215 215 216 217 217 219 221 223 225 227 227 227 230 235 240 242 244 247 252 257 265 275
294 294 279 264 251 238 233 228 226 226 224 221 220 220 220 219 220 221 221 223 224 226 227 226 224 223 226 230 232 234 236 237 236 238 241 244 246 249 252 255 261 265 271
272 287 288 274 261 249 239 233 228 228 228 226 223 223 223 223 223 225 226 226 228 230 232 234 237 238 239 239 240 240 240 238 237 240 244 247 251 253 255 257 259 261 267
Wind_Speed_850mb
27 26 27 32 36 42 51 56 66 67 51 38 46 46 48 47 39 30 24 22 19 37 52 48 34 59 63 47 68 49 59 52 40 47 44 37 32 31 36 30 23 20 16
29 24 25 30 34 43 50 57 63 66 46 39 42 48 48 44 36 29 13 14 14 35 50 36 55 70 65 53 29 38 61 60 48 55 53 35 40 35 26 17 16 17 8
28 21 22 27 32 41 51 57 64 60 38 37 40 43 45 46 41 29 13 6 10 40 50 50 58 68 53 19 51 63 66 71 60 53 49 28 17 45 29 28 24 20 29
25 17 19 22 30 40 46 53 58 49 29 37 40 44 44 43 28 22 15 5 20 43 39 58 42 72 56 56 61 64 63 70 70 66 49 39 43 37 26 33 36 35 32
20 14 16 18 27 36 45 50 51 39 30 34 40 38 34 28 21 18 20 25 34 31 30 46 63 68 44 46 53 65 67 69 76 74 47 35 36 48 62 47 42 38 31
22 14 11 13 20 30 38 49 45 36 35 37 41 35 25 23 25 23 31 29 35 19 31 33 32 47 44 39 47 57 62 59 65 64 52 49 43 53 65 64 51 44 35
24 14 8 9 16 27 34 45 48 31 33 37 41 37 25 26 30 29 28 23 23 26 29 24 25 27 27 32 35 53 55 49 57 64 61 40 39 48 56 67 56 45 37
24 15 8 6 11 19 23 31 46 40 31 31 35 29 23 21 36 34 33 37 31 23 24 25 25 26 21 22 32 52 53 54 61 62 56 36 28 31 44 47 46 45 18
27 17 10 5 5 13 17 26 34 36 35 34 30 29 24 21 33 40 27 31 33 24 23 25 22 19 12 11 24 27 44 57 48 31 21 23 22 27 40 39 36 34 29
31 24 14 8 5 8 15 20 25 33 39 33 23 23 24 22 23 41 39 36 39 32 28 32 28 31 25 31 48 58 55 46 46 51 48 41 41 36 34 35 32 26 13
36 28 20 12 10 5 15 13 17 21 33 37 33 26 20 21 18 30 38 33 32 37 34 35 62 69 64 53 57 61 54 51 64 54 45 43 38 36 33 32 28 20 21
35 31 24 17 15 11 13 15 15 15 23 35 37 39 34 34 32 28 30 35 44 51 59 60 57 60 62 62 65 72 57 54 53 46 40 40 35 32 28 25 22 18 14
41 39 36 27 22 19 16 18 18 20 22 24 25 31 40 48 53 53 54 54 55 60 63 63 63 63 64 58 56 56 52 50 45 40 36 36 30 30 28 23 18 16 14
49 48 44 37 31 27 24 22 24 22 24 26 29 35 39 45 50 58 58 57 58 54 51 52 53 54 51 47 47 45 45 44 43 38 36 35 28 26 23 20 17 16 14
57 60 55 49 41 38 36 33 33 28 28 29 26 33 38 42 44 46 48 48 47 50 49 50 50 48 44 40 39 39 40 41 41 39 36 32 28 26 22 19 18 15 12
63 66 62 57 53 48 46 45 36 39 38 31 25 26 30 34 36 38 41 43 44 46 46 45 46 47 45 43 42 40 41 40 38 38 35 32 28 26 23 20 17 15 11
67 72 72 70 63 57 54 57 51 46 42 33 32 33 33 30 32 34 36 38 41 43 43 43 43 44 45 44 41 39 38 37 35 33 30 28 26 22 19 16 13 11 7
62 68 75 76 70 64 61 61 60 54 49 45 44 43 41 39 36 35 35 37 39 37 38 41 42 42 45 44 40 37 35 35 34 31 28 24 21 18 14 11 8 6 4
68 61 61 74 76 74 71 69 69 64 58 56 55 52 48 47 44 42 38 36 37 39 39 39 40 40 41 41 39 36 34 31 30 29 25 21 16 11 7 4 3 5 8
36 50 58 67 85 83 80 78 78 76 72 64 61 57 54 53 51 49 48 43 40 39 40 41 42 41 38 39 40 39 36 33 30 26 22 16 12 8 6 6 7 10 12
25 25 41 59 69 87 89 89 86 88 79 70 68 65 61 57 55 55 54 52 50 47 44 41 41 42 42 42 41 40 40 35 29 24 21 19 17 15 15 15 15 14 15
25 27 35 48 60 76 93 96 97 83 82 80 76 74 69 65 63 61 59 59 57 56 54 50 48 47 46 46 45 44 41 37 33 28 26 25 24 24 23 21 21 20 18
32 30 33 44 54 62 88 101 96 88 83 85 85 82 77 73 71 70 70 68 66 64 62 61 58 55 52 51 50 46 42 40 37 35 33 34 33 32 30 28 28 27 25
34 28 31 41 54 60 73 93 97 93 88 88 89 89 88 84 81 78 76 76 76 73 71 68 65 60 59 56 53 49 49 48 46 44 45 44 43 41 41 39 36 32 31
33 31 32 37 46 56 64 78 94 99 94 91 91 95 94 93 90 88 86 85 81 78 75 72 68 65 65 60 53 53 54 51 48 50 53 55 55 52 49 45 43 39 37
28 30 35 37 39 46 58 68 84 95 98 96 95 98 100 99 97 94 92 90 86 81 77 74 69 63 61 57 55 54 55 55 56 59 62 63 62 59 55 52 49 48 45
Wind_Direction_850mb
237 254 286 308 324 332 336 343 345 347 350 349 340 342 340 341 338 318 288 261 239 214 197 190 192 204 199 203 204 190 174 161 176 161 159 162 168 170 186 185 194 199 198
227 249 287 308 330 340 341 348 346 348 349 344 345 340 343 342 337 337 300 236 219 191 180 164 186 185 173 143 135 200 167 171 173 171 163 141 138 145 163 171 199 199 187
223 245 284 313 337 344 349 353 348 351 351 348 342 348 355 356 8 9 15 238 186 175 163 168 172 169 173 155 184 203 185 173 176 184 171 146 141 116 129 143 148 160 163
215 244 289 320 342 352 356 358 354 356 357 353 351 358 359 6 6 26 43 74 155 155 165 163 173 179 189 184 189 201 183 178 177 184 186 189 186 148 122 130 140 151 148
214 245 291 330 348 358 6 0 2 5 6 1 358 5 10 32 27 50 60 106 137 157 142 175 177 188 193 197 195 198 184 185 183 185 182 188 182 194 161 143 141 146 142
211 236 282 333 352 9 18 4 17 11 15 14 10 12 9 52 58 70 106 119 149 137 156 159 183 197 200 193 201 202 192 192 191 189 190 200 188 185 171 158 154 150 139
209 228 271 325 358 19 31 20 28 19 14 4 21 33 38 72 77 88 106 118 139 142 148 146 168 180 189 198 209 213 191 190 190 197 198 194 199 189 184 169 160 154 147
207 221 255 318 2 27 41 29 19 24 24 19 25 45 54 86 95 94 105 99 101 117 143 148 153 174 192 206 223 191 184 189 199 183 173 168 161 175 189 180 170 155 157
205 214 237 274 340 26 43 44 24 12 28 31 36 54 71 76 107 108 103 110 109 96 139 137 157 164 201 174 187 189 145 137 129 125 126 150 186 214 202 194 188 198 171
200 207 222 234 257 40 47 63 39 24 34 34 33 46 80 88 103 121 124 135 134 142 135 148 153 150 154 157 150 133 128 123 124 124 128 137 143 149 160 175 181 195 218
204 203 205 214 228 112 71 68 59 47 55 54 53 66 86 98 105 120 122 124 134 135 133 134 125 123 125 129 130 129 128 134 132 136 138 139 148 158 163 173 190 209 218
211 208 203 205 222 174 113 94 86 78 81 75 67 68 83 92 101 102 110 121 127 128 124 128 127 124 126 125 126 125 128 130 137 137 144 144 149 154 155 170 179 181 180
209 211 207 203 214 194 154 128 123 110 97 100 93 89 90 96 98 100 105 109 115 118 121 123 123 123 128 124 124 129 133 135 135 136 140 140 145 142 142 145 146 144 144
210 213 213 204 207 203 174 144 149 134 117 112 115 114 112 109 112 111 114 116 118 118 119 119 120 123 128 127 128 134 136 134 133 136 133 128 130 125 120 119 120 119 125
214 215 213 207 203 205 191 166 163 155 144 136 132 128 125 125 123 121 120 119 123 125 127 127 127 126 127 128 131 133 132 132 133 130 128 126 122 117 118 116 116 115 118
224 222 217 211 206 205 204 184 174 171 165 159 158 152 144 139 137 133 132 133 133 132 133 134 133 133 134 132 134 135 135 134 133 134 133 130 130 126 122 117 113 104 98
239 228 222 216 209 206 206 199 188 183 181 184 179 173 165 158 151 147 146 146 143 143 143 142 142 143 143 141 144 144 144 141 139 137 133 129 123 122 116 110 98 84 70
253 243 232 222 215 210 207 208 200 199 199 197 190 183 178 171 170 166 165 162 157 154 155 155 155 156 152 150 152 153 153 150 147 142 136 131 126 119 113 101 86 74 46
258 256 249 230 220 212 209 209 208 205 203 198 195 192 187 182 180 178 178 177 173 169 170 168 166 167 164 160 161 163 164 161 158 153 147 141 139 124 111 107 23 348 330
263 252 250 238 225 216 211 210 211 210 208 204 198 197 195 192 189 189 185 186 186 186 184 180 177 176 178 177 176 174 176 179 175 168 166 165 169 185 210 229 266 287 302
301 264 241 244 235 221 215 212 213 215 212 208 205 203 202 201 199 197 195 193 193 194 197 196 193 190 190 191 191 190 189 190 192 190 194 201 212 223 236 246 256 270 290
302 276 250 240 235 225 219 217 217 217 215 211 210 209 208 206 206 205 203 201 201 201 202 203 204 205 204 203 204 205 202 200 203 212 218 221 228 235 242 249 261 271 281
305 292 260 242 233 230 222 221 222 220 217 215 213 212 212 213 212 211 209 209 209 209 209 209 210 211 214 215 215 215 216 218 218 222 229 235 238 241 246 251 256 265 280
310 295 268 246 235 230 227 226 224 223 220 218 217 216 215 215 216 216 217 218 217 215 215 216 217 217 219 221 223 225 227 227 227 230 235 240 242 244 247 252 257 265 275
294 294 279 264 251 238 233 228 226 226 224 221 220 220 220 219 220 221 221 223 224 226 227 226 224 223 226 230 232 234 236 237 236 238 241 244 246 249 252 255 261 265 271
272 287 288 274 261 249 239 233 228 228 228 226 223 223 223 223 223 225 226 226 228 230 232 234 237 238 239 239 240 240 240 238 237 240 244 247 251 253 255 257 259 261 267